TimeEST,TemperatureF,Dew PointF,Humidity,Sea Level PressureIn,VisibilityMPH,Wind Direction,Wind SpeedMPH,Gust SpeedMPH,PrecipitationIn,Events,Conditions,WindDirDegrees,DateUTC
12:25 AM,-1.7,-7.8,75,30.02,-9999.0,Calm,Calm,-,0.01,,Unknown,0,2013-02-06 05:25:00
1:25 AM,-1.5,-7.6,75,30.01,-9999.0,Variable,3.5,-,0.01,,Unknown,0,2013-02-06 06:25:00
2:25 AM,-1.5,-6.7,78,30.00,-9999.0,Variable,2.3,-,0.00,,Unknown,0,2013-02-06 07:25:00
3:25 AM,0.5,-6.0,74,29.98,-9999.0,Variable,3.5,-,N/A,,Unknown,0,2013-02-06 08:25:00
4:25 AM,1.9,-5.6,71,29.98,-9999.0,Variable,2.3,-,0.00,,Unknown,0,2013-02-06 09:25:00
5:25 AM,4.8,-3.5,69,29.97,-9999.0,Calm,Calm,-,0.01,,Unknown,0,2013-02-06 10:25:00
6:25 AM,5.5,-0.2,77,29.97,-9999.0,Variable,6.9,-,N/A,,Unknown,0,2013-02-06 11:25:00
7:25 AM,6.4,1.4,80,29.96,-9999.0,South,8.1,15.0,N/A,,Unknown,170,2013-02-06 12:25:00
8:27 AM,8.1,3.4,81,29.96,-9999.0,Variable,5.8,12.7,0.01,,Unknown,0,2013-02-06 13:27:00
9:32 AM,10.9,5.4,78,29.93,-9999.0,South,13.8,18.4,N/A,,Unknown,170,2013-02-06 14:32:00
10:41 AM,13.3,8.2,80,29.91,-9999.0,SSE,9.2,19.6,N/A,,Unknown,160,2013-02-06 15:41:00
11:25 AM,16.7,11.1,79,29.88,-9999.0,South,11.5,17.3,0.00,,Unknown,170,2013-02-06 16:25:00
12:28 PM,20.3,16.3,85,29.87,-9999.0,South,6.9,-,0.01,,Unknown,180,2013-02-06 17:28:00
1:28 PM,20.3,12.9,73,29.88,-9999.0,SSW,10.4,21.9,N/A,,Unknown,210,2013-02-06 18:28:00
2:25 PM,18.7,7.5,62,29.92,-9999.0,SW,9.2,23.0,N/A,,Unknown,220,2013-02-06 19:25:00
3:28 PM,16.5,5.5,62,29.95,-9999.0,SW,8.1,24.2,N/A,,Unknown,220,2013-02-06 20:28:00
4:25 PM,13.6,2.5,61,29.99,-9999.0,WSW,9.2,20.7,0.00,,Unknown,240,2013-02-06 21:25:00
5:25 PM,10.8,4.5,76,30.01,-9999.0,Variable,3.5,-,0.00,,Unknown,0,2013-02-06 22:25:00
6:27 PM,10.6,1.8,68,30.05,-9999.0,WSW,8.1,16.1,N/A,,Unknown,240,2013-02-06 23:27:00
7:25 PM,7.5,-3.8,60,30.11,-9999.0,Variable,6.9,19.6,0.00,,Unknown,0,2013-02-07 00:25:00
8:25 PM,4.3,-6.3,61,30.14,-9999.0,Variable,3.5,-,0.00,,Unknown,0,2013-02-07 01:25:00
9:25 PM,2.5,-8.0,62,30.17,-9999.0,Variable,4.6,16.1,N/A,,Unknown,0,2013-02-07 02:25:00
10:25 PM,0.1,-9.0,65,30.20,-9999.0,Variable,3.5,-,N/A,,Unknown,0,2013-02-07 03:25:00
11:25 PM,-2.0,-10.5,67,30.23,-9999.0,Calm,Calm,-,0.00,,Unknown,0,2013-02-07 04:25:00